Location: Rotheul
(50.2849°N, 11.2349°E)
Time: 06:15:20
(UTC+02:00)

ISS - Pass Details

Date: 18 July 2018
Orbit: 402 x 408 km, 51.6° (Epoch: 23 July)

Event Time Altitude Azimuth Distance (km) Brightness Sun altitude
Exits shadow 23:58:04 47° 147° (SSE) 551 -3.6 -16.5°
Drops below altitude 10° 00:01:09 10° 79° (E) 1,469 -1.1 -16.6°
Sets 00:03:17 0° 73° (ENE) 2,333 0.0 -16.7°
